Weather History for Chico, CA

Change the Weather History Date:

Sunday, February 2, 2014

  Actual Average (KOVE) Record (KOVE)
Temperature  
Mean Temperature 44 °F -  
Max Temperature 51 °F 57 °F 67 °F (1984)
Min Temperature 37 °F 36 °F 24 °F (1955)
Degree Days  
Heating Degree Days 21    
Moisture  
Dew Point 28 °F    
Average Humidity 51    
Maximum Humidity 75    
Minimum Humidity 34    
Precipitation  
Precipitation 0.00 in - - ()
Sea Level Pressure  
Sea Level Pressure 30.00 in    
Wind  
Wind Speed 8 mph (ESE)    
Max Wind Speed 14 mph    
Max Gust Speed -    
Visibility 10 miles    
Events      
Averages and records for this station are not official NWS values.
T = Trace of Precipitation, MM = Missing Value Source: NWS Daily Summary

Daily Weather History Graph

Daily Weather History Graph

Search for Another Location

Airport:

Trip Planner

Search our weather history database for the weather conditions in past years. The results will help you decide how hot, cold, wet, or windy it might be!

Date:

Astronomy

Feb. 02, 2014 Rise Set
Actual Time 7:14 AM PST 5:28 PM PST
Civil Twilight 6:45 AM PST 5:56 PM PST
Nautical Twilight 6:13 AM PST 6:29 PM PST
Astronomical Twilight 5:42 AM PST 7:00 PM PST
Moon 8:44 AM PST (2/2) 9:17 PM PST (2/2)
Length of Visible Light 11h 10m
Length of Day
10h 13m
Waxing Crescent, 12% of the Moon is Illuminated
Feb 2
Waxing Crescent
Feb 6
First Quarter
Feb 14
Full
Feb 22
Last Quarter
Mar 1
New

Hourly Weather History & Observations

Time (PST) Temp. Windchill Dew Point Humidity Pressure Visibility Wind Dir Wind Speed Gust Speed Precip Events Conditions
12:15 AM 48.2 °F - 23.0 °F 37% 30.03 in 10.0 mi ESE 12.7 mph - N/A   Clear
12:35 AM 50.0 °F - 23.0 °F 35% 30.03 in 10.0 mi ESE 12.7 mph - N/A   Clear
12:55 AM 48.2 °F - 23.0 °F 37% 30.02 in 10.0 mi ESE 11.5 mph - N/A   Clear
1:15 AM 48.2 °F - 23.0 °F 37% 30.02 in 10.0 mi ESE 10.4 mph - N/A   Clear
1:35 AM 48.2 °F - 23.0 °F 37% 30.02 in 10.0 mi ESE 10.4 mph - N/A   Clear
1:55 AM 48.2 °F - 23.0 °F 37% 30.02 in 10.0 mi ESE 10.4 mph - N/A   Partly Cloudy
2:15 AM 48.2 °F - 23.0 °F 37% 30.02 in 10.0 mi ESE 11.5 mph - N/A   Mostly Cloudy
2:35 AM 48.2 °F - 21.2 °F 34% 30.02 in 10.0 mi ESE 10.4 mph - N/A   Mostly Cloudy
2:55 AM 48.2 °F - 21.2 °F 34% 30.01 in 10.0 mi ESE 10.4 mph - N/A   Mostly Cloudy
3:15 AM 48.2 °F - 23.0 °F 37% 30.01 in 10.0 mi SE 10.4 mph - N/A   Overcast
3:35 AM 48.2 °F - 23.0 °F 37% 30.01 in 10.0 mi SE 10.4 mph - N/A   Overcast
3:55 AM 48.2 °F - 23.0 °F 37% 30.00 in 10.0 mi SE 9.2 mph - N/A   Overcast
4:15 AM 48.2 °F - 23.0 °F 37% 30.00 in 10.0 mi SE 8.1 mph - N/A   Overcast
4:35 AM 46.4 °F 42.9 °F 24.8 °F 43% 29.99 in 10.0 mi SE 6.9 mph - N/A   Overcast
4:55 AM 48.2 °F - 24.8 °F 40% 29.99 in 10.0 mi SE 9.2 mph - N/A   Overcast
5:15 AM 46.4 °F 44.3 °F 24.8 °F 43% 29.99 in 10.0 mi SSE 4.6 mph - N/A   Overcast
5:35 AM 46.4 °F - 24.8 °F 43% 29.99 in 10.0 mi Calm Calm - N/A   Overcast
5:55 AM 39.2 °F - 26.6 °F 61% 29.99 in 10.0 mi Calm Calm - N/A   Overcast
6:15 AM 39.2 °F - 26.6 °F 61% 29.98 in 10.0 mi Calm Calm - N/A   Overcast
6:35 AM 39.2 °F - 26.6 °F 61% 29.98 in 10.0 mi Calm Calm - N/A   Overcast
6:55 AM 39.2 °F - 26.6 °F 61% 29.98 in 40.0 mi Calm Calm - N/A   Overcast
7:50 AM 37.4 °F 30.8 °F 28.4 °F 70% 29.99 in 40.0 mi WNW 9.2 mph - N/A   Overcast
8:50 AM 39.2 °F 33.0 °F 28.4 °F 65% 29.98 in 40.0 mi NW 9.2 mph - N/A   Overcast
9:58 AM 44.6 °F - 28.4 °F 53% 29.98 in 40.0 mi North - - N/A   Overcast
10:52 AM 46.4 °F 40.4 °F 26.6 °F 46% - 10.0 mi NW 13.8 mph - N/A   Overcast
11:59 AM 50.0 °F - 28.4 °F 43% 29.95 in 40.0 mi NW 11.5 mph - N/A   Overcast
12:53 PM 50.0 °F - 28.4 °F 43% 29.94 in 25.0 mi NW 11.5 mph - N/A   Overcast
1:58 PM 50.0 °F - 28.4 °F 43% 29.93 in 25.0 mi WNW 11.5 mph - N/A   Overcast
2:55 PM 51.8 °F - 28.4 °F 41% 29.94 in 25.0 mi NW 11.5 mph - N/A   Overcast
3:58 PM 51.8 °F - 32.0 °F 47% 29.95 in 25.0 mi North - - N/A   Overcast
6:55 PM 48.2 °F - 32.0 °F 54% 30.01 in 10.0 mi Calm Calm - N/A   Overcast
7:15 PM 46.4 °F - 32.0 °F 57% 30.01 in 10.0 mi Calm Calm - N/A   Overcast
7:35 PM 46.4 °F - 32.0 °F 57% 30.01 in 10.0 mi Calm Calm - N/A   Overcast
7:55 PM 46.4 °F - 32.0 °F 57% 30.01 in 10.0 mi Calm Calm - N/A   Overcast
8:15 PM 46.4 °F - 32.0 °F 57% 30.02 in 10.0 mi Calm Calm - N/A   Overcast
8:35 PM 46.4 °F - 32.0 °F 57% 30.02 in 10.0 mi Calm Calm - N/A   Overcast
8:55 PM 46.4 °F - 32.0 °F 57% 30.02 in 10.0 mi Calm Calm - N/A   Overcast
9:15 PM 46.4 °F - 32.0 °F 57% 30.02 in 10.0 mi Calm Calm - N/A   Overcast
9:35 PM 44.6 °F - 32.0 °F 61% 30.02 in 10.0 mi Calm Calm - N/A   Overcast
9:55 PM 44.6 °F - 32.0 °F 61% 30.02 in 10.0 mi Calm Calm - N/A   Overcast
10:15 PM 42.8 °F - 32.0 °F 66% 30.02 in 10.0 mi Calm Calm - N/A   Overcast
10:35 PM 41.0 °F - 32.0 °F 70% 30.02 in 10.0 mi Calm Calm - N/A   Mostly Cloudy
10:55 PM 39.2 °F - 32.0 °F 75% 30.02 in 10.0 mi Calm Calm - N/A   Scattered Clouds
11:15 PM 39.2 °F - 32.0 °F 75% 30.03 in 10.0 mi Calm Calm - N/A   Scattered Clouds
11:35 PM 39.2 °F - 32.0 °F 75% 30.03 in 10.0 mi Calm Calm - N/A   Partly Cloudy
11:55 PM 39.2 °F - 32.0 °F 75% 30.03 in 10.0 mi Calm Calm - N/A   Partly Cloudy